Orbital Elements at Epoch 2459000.5 (2020-May-31.0) TDB
Reference: JPL 17 (heliocentric ecliptic J2000)
Element | Value | Uncertainty (1-sigma) | Units |
e | .1208158063893016 | 4.5967e-08 | |
a | 3.030340881462833 | 2.0321e-08 | au |
q | 2.664227804234434 | 1.4478e-07 | au |
i | 4.832842846910874 | 4.4055e-06 | deg |
node | 232.7992987919241 | 6.1414e-05 | deg |
peri | 83.52807758634781 | 6.7608e-05 | deg |
M | 359.6055181451707 | 2.4456e-05 | deg |
tp | 2459002.611349768047 (2020-Jun-02.11134977) | 0.00013089 | TDB |
period | 1926.795636331009 5.28 | 1.9381e-05 5.306e-08 | d yr |
n | .186838704225794 | 1.8793e-09 | deg/d |
Q | 3.396453958691233 | 2.2776e-08 | au |
|
| | Orbit Determination Parameters
Additional Information
|